User: anonymous   Login
Location: Elstree
(51.6403°N, 0.2969°W)
Time: 04:07:19
(UTC+00:00)
Language:

YAOGAN-30 P - Orbit

View from above orbital plane
View from above orbital plane
View from above satellite
View from above satellite

Ground track
Ground track

The orbit data is extracted from the following two-line orbital elements,

1 44450U 19045B   21339.83104845  .00000558  00000-0  59347-4 0  9997
2 44450  34.9941 218.8951 0009324 155.8561 204.2577 14.90077783128871
Epoch (UTC): 05 December 2021 19:56:42
Eccentricity: 0.0009324
inclination: 34.9941°
perigee height: 591 km
apogee height: 604 km
right ascension of ascending node: 218.8951°
argument of perigee: 155.8561°
revolutions per day: 14.90077783
mean anomaly at epoch: 204.2577°
orbit number at epoch: 12887

The dashed part of the orbit path shows where the satellite is in the earth's shadow,  

DLR